[[{"header":{"parameterUnit":"m.s-1","parameterCategory":1,"la1":30.2991,"la2":30.254,"lo1":-89.0895,"lo2":-89.0444,"dy":0.0017,"dx":0.0017,"nx":28,"ny":28,"refTime":"2023-10-18T09:00:00:Z","depth":0,"parameterNumber":2,"parameterNumberName":"U-component_of_WINDS"},"data":[0,0,0,0,0,0,0,0,0,0,0,0,0,0,0,0,0,0,0,0,0,0,0,0,0,0,0,0,0,0,0,0,0,0,0,0,0,0,0,0,0,0,0,0,0,0,0,0,0,0,0,0,0,0,0,0,0,0,0.4812,0.4812,0,0.4816,0.4816,0.4816,0.4792,0.4792,0.4791,0.479,0.4794,0.4794,0.4795,0,0,0,0,0,0,0,0,0,0,0,0,0,0.4782,0.4782,0.4812,0.4812,0.4812,0.4816,0.4816,0.4816,0.4792,0.4792,0.4791,0.479,0.4793,0.4794,0.4795,0,0,0,0,0,0,0,0,0,0,0,0,0,0.4791,0.4782,0.4812,0.4801,0.48,0.4816,0.4816,0.4816,0.4793,0.4792,0.4791,0.479,0.4793,0.4794,0.4795,0.4822,0,0,0.4799,0.4799,0,0,0,0,0,0,0,0,0.4791,0.4792,0.4802,0.4801,0.48,0.4803,0.4807,0.4818,0.4793,0.4795,0.479,0.4789,0.4797,0.4798,0.4801,0.4823,0.4823,0.4799,0.4799,0.48,0.48,0,0,0,0,0,0,0,0.479,0.4792,0.4813,0.4802,0.4801,0.4795,0.4795,0.4809,0.4802,0.4795,0.4793,0.4794,0.4797,0.48,0.4801,0.4823,0.4799,0.48,0.48,0.4801,0.4865,0.4866,0,0,0,0,0,0,0.4791,0.4792,0.4813,0.4814,0.4793,0.4796,0.4797,0.4803,0.4802,0.4801,0.4795,0.4793,0.4799,0.48,0.4801,0.4831,0.48,0.4801,0.4801,0.4864,0.4865,0.4866,0,0,0,0,0,0,0.479,0.4793,0.4813,0.4802,0.4804,0.4798,0.4805,0.4804,0.4807,0.4802,0.48,0.48,0.4798,0.48,0.4817,0.4831,0.4801,0.4802,0.4863,0.4864,0.4866,0.4893,0,0,0,0,0,0,0.479,0.4793,0.4804,0.4803,0.4805,0.4829,0.4806,0.4804,0.4809,0.4806,0.4806,0.4805,0.4797,0.4816,0.4818,0.4832,0.4803,0.4861,0.4864,0.4865,0.489,0.4895,0.4899,0,0,0,0,0,0.4789,0.4811,0.4804,0.4807,0.4818,0.483,0.4831,0.4823,0.481,0.482,0.4817,0.4805,0.483,0.4818,0.482,0.4835,0.486,0.4863,0.4865,0.4888,0.4894,0.4899,0,0,0,0,0,0,0.4814,0.4811,0.4803,0.4826,0.4829,0.4826,0.4839,0.4829,0.4835,0.4832,0.4821,0.4821,0.484,0.4839,0.4826,0.486,0.4843,0.4846,0.4859,0.4865,0.4869,0.4868,0.4804,0,0,0,0,0,0.4822,0.4833,0.4829,0.485,0.4851,0.4845,0.485,0.4843,0.4845,0.4846,0.4844,0.4846,0.4854,0.486,0.4867,0.4891,0.489,0.4902,0.4906,0.491,0.4912,0.4923,0.4928,0.4874,0.4874,0.4874,0,0,0.4839,0.4839,0.4846,0.4855,0.4856,0.4866,0.4846,0.4858,0.4866,0.4848,0.4864,0.4863,0.4864,0.4884,0.4893,0.4884,0.4927,0.4913,0.4916,0.4916,0.4926,0.4931,0.4935,0.4876,0.4876,0.4875,0,0,0.4874,0.4876,0.4892,0.4894,0.4896,0.4892,0.4896,0.4895,0.4893,0.4909,0.4896,0.4905,0.4919,0.492,0.4923,0.4959,0.4948,0.4962,0.4983,0.4994,0.4998,0.5002,0.5013,0.5018,0.4965,0.4965,0.4965,0,0.4895,0.491,0.4902,0.4915,0.4918,0.4904,0.4919,0.4921,0.4926,0.4928,0.4919,0.4936,0.4936,0.4956,0.4965,0.4968,0.4971,0.4961,0.4999,0.5002,0.5005,0.5016,0.502,0.4966,0.4966,0.4966,0.4966,0,0.4935,0.4946,0.4959,0.4963,0.4969,0.4983,0.4976,0.4983,0.4975,0.4972,0.4988,0.4988,0.4994,0.4999,0.4992,0.5017,0.5011,0.5001,0.4982,0.5012,0.5022,0.5026,0.4969,0.4968,0.4968,0.4967,0,0,0.4985,0.4984,0.4989,0.499,0.4992,0.5,0.5014,0.502,0.5025,0.5029,0.5039,0.5052,0.5041,0.5044,0.5038,0.5048,0.5074,0.5035,0.5035,0.5041,0.51,0.5107,0.5112,0.5068,0.5069,0.5069,0.51,0,0.5018,0.5041,0.5033,0.5056,0.5066,0.5052,0.5063,0.5065,0.5063,0.507,0.5067,0.5075,0.5062,0.5063,0.5073,0.5069,0.5086,0.5067,0.5076,0.5076,0.5074,0.5117,0.5125,0.5153,0.5104,0.5104,0.5105,0,0.5059,0.5064,0.5088,0.5087,0.5091,0.5101,0.5106,0.5114,0.5116,0.5113,0.5116,0.5108,0.512,0.5104,0.512,0.5107,0.5111,0.511,0.5111,0.5109,0.5091,0.5115,0.5162,0.5166,0.5111,0.511,0.511,0,0.5091,0.5104,0.5119,0.5121,0.5121,0.5129,0.5129,0.513,0.5134,0.5138,0.5141,0.5147,0.5149,0.5154,0.5147,0.5136,0.5164,0.5147,0.5161,0.5161,0.5165,0.5165,0.5212,0.5171,0.5171,0.5171,0.5171,0,0.5127,0.5142,0.5133,0.5143,0.5159,0.515,0.5166,0.5165,0.5166,0.5174,0.5163,0.5171,0.5162,0.5169,0.5164,0.5177,0.5179,0.5177,0.5175,0.5176,0.5176,0.5177,0.5174,0.5172,0.5172,0.5172,0.5172,0,0.5164,0.5159,0.5175,0.5174,0.5174,0.5185,0.5184,0.5192,0.5189,0.52,0.5202,0.5197,0.5204,0.5198,0.5206,0.5202,0.522,0.5216,0.5219,0.5217,0.523,0.5228,0.5277,0.5283,0.5241,0.5241,0.5241,0,0.5187,0.5197,0.5197,0.5202,0.5203,0.5211,0.5215,0.5208,0.5213,0.5215,0.5223,0.523,0.5235,0.5248,0.5244,0.525,0.5245,0.5262,0.5246,0.5247,0.5243,0.5242,0.5242,0.5265,0.5265,0.5265,0.5266,0,0.5226,0.5223,0.523,0.5236,0.5241,0.5245,0.5248,0.5253,0.5245,0.5251,0.5259,0.5263,0.527,0.5277,0.5281,0.5281,0.5272,0.5271,0.5274,0.5275,0.5276,0.5274,0.5226,0.527,0.5269,0.5269,0.5269,0.5269,0.5255,0.5264,0.5265,0.5272,0.5274,0.5277,0.5284,0.5282,0.5289,0.5294,0.529,0.5299,0.53,0.5305,0.5306,0.5313,0.5306,0.5311,0.5312,0.5312,0.5313,0.5277,0.5314,0.5314,0.5314,0.5314,0.5314,0,0.5293,0.5293,0.53,0.5305,0.531,0.5302,0.5305,0.531,0.5318,0.532,0.5325,0.5334,0.534,0.5338,0.5343,0.5349,0.5345,0.5351,0.5349,0.5349,0.532,0.5316,0.5354,0.5354,0.5354,0.5354,0.5354,0.5354,0.5313,0.5326,0.5324,0.5338,0.5338,0.5346,0.5349,0.5351,0.5353,0.5363,0.5368,0.5367,0.5366,0.5372,0.5377,0.5376,0.5378,0.5385,0.5382,0.5355,0.5351,0.5347,0.5343,0.5386,0.5386,0.541,0.541,0.541]},{"header":{"parameterUnit":"m.s-1","parameterCategory":1,"la1":30.2991,"la2":30.254,"lo1":-89.0895,"lo2":-89.0444,"dy":0.0017,"dx":0.0017,"nx":28,"ny":28,"refTime":"2023-10-18T09:00:00:Z","depth":0,"parameterNumber":3,"parameterNumberName":"V-component_of_WINDS"},"data":[0,0,0,0,0,0,0,0,0,0,0,0,0,0,0,0,0,0,0,0,0,0,0,0,0,0,0,0,0,0,0,0,0,0,0,0,0,0,0,0,0,0,0,0,0,0,0,0,0,0,0,0,0,0,0,0,0,0,1.8912,1.8913,0,1.9006,1.9007,1.9008,1.9007,1.9005,1.9004,1.9003,1.9092,1.9096,1.9099,0,0,0,0,0,0,0,0,0,0,0,0,0,1.8725,1.8728,1.8912,1.8914,1.8915,1.9006,1.9007,1.9009,1.9007,1.9005,1.9004,1.9002,1.9091,1.9095,1.91,0,0,0,0,0,0,0,0,0,0,0,0,0,1.8811,1.8729,1.8912,1.8925,1.8927,1.9006,1.9007,1.9009,1.9007,1.9005,1.9003,1.9002,1.909,1.9095,1.91,1.917,0,0,1.9117,1.9119,0,0,0,0,0,0,0,0,1.8806,1.8818,1.8922,1.8924,1.8927,1.8993,1.8974,1.9063,1.9008,1.8977,1.9003,1.9001,1.906,1.9068,1.909,1.9175,1.9178,1.9117,1.912,1.9123,1.9124,0,0,0,0,0,0,0,1.88,1.8814,1.8949,1.8923,1.8926,1.8924,1.8934,1.8991,1.9027,1.8979,1.8979,1.8991,1.9061,1.9084,1.9092,1.918,1.9117,1.9122,1.9125,1.9127,1.9325,1.9326,0,0,0,0,0,0,1.8792,1.8809,1.8946,1.8952,1.8861,1.8929,1.894,1.8973,1.9027,1.9033,1.8992,1.899,1.9076,1.9085,1.9095,1.9179,1.9122,1.9127,1.9131,1.9322,1.9325,1.9327,0,0,0,0,0,0,1.8788,1.8805,1.8943,1.8881,1.8898,1.8934,1.8971,1.8976,1.8999,1.9037,1.9043,1.9009,1.9075,1.9087,1.9152,1.9182,1.913,1.9135,1.932,1.9323,1.9326,1.9348,0,0,0,0,0,0,1.8783,1.8803,1.8832,1.8881,1.8901,1.9,1.8973,1.8979,1.9009,1.9008,1.9055,1.9061,1.9075,1.9144,1.9157,1.9188,1.9139,1.9317,1.9321,1.9325,1.9345,1.9352,1.9358,0,0,0,0,0,1.8776,1.8834,1.8834,1.885,1.8938,1.9002,1.9013,1.903,1.9012,1.904,1.9064,1.9059,1.9177,1.915,1.9165,1.9199,1.9316,1.932,1.9325,1.9342,1.9351,1.9358,0,0,0,0,0,0,1.8785,1.884,1.8841,1.8916,1.8955,1.9002,1.9037,1.9038,1.9081,1.9077,1.9094,1.9105,1.9168,1.919,1.916,1.9268,1.9244,1.9251,1.9252,1.926,1.9266,1.9259,1.9143,0,0,0,0,0,1.8796,1.8845,1.889,1.8952,1.8972,1.9001,1.903,1.9039,1.9079,1.9094,1.9123,1.9159,1.9204,1.9233,1.9277,1.9348,1.9357,1.9379,1.9385,1.939,1.9396,1.9433,1.9442,1.9342,1.9342,1.9342,0,0,1.8819,1.8855,1.8885,1.8955,1.8986,1.9034,1.9015,1.9067,1.9102,1.9101,1.9164,1.9186,1.9228,1.9296,1.9327,1.9315,1.9426,1.9396,1.9399,1.9403,1.9439,1.9448,1.9457,1.9346,1.9345,1.9344,0,0,1.8885,1.8918,1.8973,1.9004,1.9052,1.9071,1.9084,1.9131,1.9146,1.921,1.921,1.925,1.9328,1.9357,1.9382,1.9458,1.9455,1.9472,1.9504,1.954,1.9548,1.9555,1.958,1.9589,1.9478,1.9478,1.9478,0,1.8906,1.8981,1.9,1.9053,1.9082,1.9086,1.914,1.9169,1.9227,1.9246,1.9233,1.933,1.9358,1.9432,1.945,1.9471,1.9485,1.9466,1.9546,1.9553,1.956,1.9584,1.9593,1.9479,1.9479,1.9479,1.9479,0,1.9004,1.9056,1.9094,1.9152,1.9186,1.9239,1.9263,1.9295,1.9301,1.9321,1.9384,1.9419,1.9468,1.9487,1.9493,1.9561,1.9552,1.9542,1.9518,1.957,1.9593,1.9603,1.9482,1.9481,1.9481,1.948,0,0,1.9078,1.9146,1.9159,1.9185,1.9237,1.9276,1.9328,1.9379,1.9404,1.9444,1.9486,1.9552,1.9543,1.9571,1.958,1.9612,1.9667,1.9598,1.9599,1.9608,1.9742,1.9748,1.9759,1.9666,1.9668,1.967,1.9738,0,1.9148,1.9243,1.9261,1.9342,1.9388,1.9392,1.9436,1.9472,1.9491,1.9531,1.9552,1.9598,1.9583,1.96,1.9632,1.9654,1.9694,1.965,1.9703,1.9705,1.9691,1.9771,1.9778,1.9841,1.9747,1.9749,1.975,0,1.9242,1.9286,1.9372,1.9417,1.9437,1.9477,1.9524,1.9564,1.9603,1.9614,1.9646,1.9651,1.9703,1.9677,1.9746,1.9715,1.9738,1.9752,1.9755,1.9759,1.9729,1.9776,1.9861,1.987,1.9764,1.9763,1.9762,0,1.9285,1.9365,1.9427,1.9449,1.9503,1.9531,1.9554,1.9592,1.9621,1.9661,1.9679,1.9724,1.9749,1.9782,1.9799,1.9779,1.9866,1.9842,1.9875,1.9875,1.9892,1.9891,1.9981,1.991,1.9909,1.9909,1.9909,0,1.936,1.9412,1.9447,1.9484,1.9542,1.9561,1.9617,1.9639,1.9673,1.9713,1.9718,1.9755,1.9776,1.9815,1.9828,1.9882,1.9894,1.9903,1.9905,1.9902,1.99,1.9916,1.9911,1.9912,1.9911,1.9911,1.991,0,1.9418,1.9443,1.951,1.9556,1.9569,1.9609,1.9647,1.9682,1.9702,1.9752,1.9765,1.9795,1.9842,1.9862,1.9919,1.9927,1.9989,1.9989,1.9976,1.9977,2.0008,2.0004,2.011,2.0124,2.0045,2.0046,2.0046,0,1.9463,1.9504,1.9554,1.9583,1.9607,1.9653,1.9682,1.9702,1.9732,1.9779,1.9808,1.9856,1.9894,1.9968,1.9993,2.0036,2.0036,2.007,2.0042,2.0037,2.0034,2.0031,2.0034,2.0075,2.0076,2.0076,2.0077,0,1.9541,1.9552,1.9595,1.9643,1.9679,1.9717,1.9754,1.9776,1.9801,1.9835,1.9883,1.9913,1.9972,2.0018,2.0062,2.0083,2.0083,2.0086,2.0095,2.0091,2.0081,2.0085,1.9988,2.0083,2.0082,2.0082,2.0081,2.0081,1.9593,1.9628,1.9669,1.9717,1.9748,1.9782,1.9817,1.9841,1.9883,1.9933,1.9942,1.9993,2.0029,2.0089,2.0113,2.0151,2.0142,2.0157,2.016,2.0163,2.0164,2.0077,2.0159,2.0159,2.0159,2.0159,2.0159,0,1.9669,1.9696,1.974,1.9793,1.983,1.9829,1.987,1.99,1.9946,1.998,2.0019,2.0073,2.0118,2.0146,2.019,2.0216,2.0217,2.0226,2.0224,2.0228,2.017,2.0157,2.0225,2.0225,2.0225,2.0225,2.0225,2.0225,1.9713,1.9773,1.9788,1.9861,1.9887,1.9939,1.9962,1.9992,2.002,2.0082,2.0119,2.0139,2.017,2.0217,2.0256,2.0263,2.0278,2.0288,2.0295,2.024,2.0233,2.0226,2.0213,2.0292,2.0292,2.0349,2.035,2.035]}]]